EW1160 Weather Reports


Display with metric or nautical units.
time (UTC)temp
F
wind
direction
speed
MPH
gust
MPH
rain 1hr
in
rain 24hr
in
rain mn
in
humidity
%
barometer
mb
20260505224549 53 179 0.0 0.0 0.00 0.03 0.01 82 1004.4
20260505223045 52 164 0.0 0.0 0.00 0.03 0.01 81 1004.4
20260505221550 52 165 0.0 0.0 0.00 0.03 0.01 82 1004.4
20260505214534 51 188 0.0 0.0 0.00 0.03 0.01 82 1004.5
20260505213033 51 189 0.0 0.0 0.00 0.03 0.01 82 1004.4
20260505211555 51 184 0.0 0.0 0.00 0.03 0.01 81 1004.5
20260505210038 51 189 0.0 0.0 0.00 0.03 0.01 81 1004.5
20260505204537 51 183 0.0 0.0 0.00 0.03 0.01 81 1004.4
20260505203032 50 174 0.0 0.0 0.00 0.03 0.01 80 1004.6
20260505201537 50 169 0.0 0.0 0.00 0.03 0.01 79 1004.8
20260505200033 50 176 0.0 0.0 0.00 0.03 0.01 79 1004.9
20260505194531 50 172 0.0 0.0 0.00 0.03 0.01 78 1005.0
20260505193015 50 174 0.0 0.0 0.00 0.03 0.01 77 1005.1
20260505191518 50 156 0.0 0.0 0.00 0.03 0.01 76 1004.9
20260505190114 50 69 0.0 0.0 0.00 0.03 0.01 75 1004.6
20260505184600 49 69 0.0 0.0 0.00 0.03 0.01 75 1004.6
20260505183059 49 68 0.0 0.0 0.00 0.03 0.01 75 1004.6
20260505181641 49 68 0.0 0.0 0.00 0.03 0.01 78 1004.3
20260505180105 49 68 0.0 0.0 0.01 0.03 0.01 80 1004.4
20260505174557 48 62 0.0 0.0 0.01 0.03 0.01 79 1004.1
20260505173056 47 62 0.0 0.0 0.01 0.03 0.01 80 1004.3
20260505171603 46 58 0.0 0.0 0.01 0.03 0.01 78 1004.2
20260505170039 47 49 0.0 0.0 0.00 0.02 0.00 76 1004.2
20260505164538 47 41 0.0 0.0 0.00 0.02 0.00 73 1003.9
20260505163021 47 10 0.0 0.0 0.00 0.02 0.00 72 1004.1
20260505161520 47 14 0.0 0.0 0.00 0.02 0.00 70 1004.5
20260505153045 48 13 0.0 0.0 0.00 0.02 0.00 68 1003.6
20260505151541 46 24 0.0 0.0 0.00 0.02 0.00 75 1003.7
20260505124502 46 354 0.0 0.0 0.00 0.02 0.00 78 1001.8
20260505123051 46 21 0.0 0.0 0.00 0.02 0.00 77 1001.5
20260505121542 45 53 0.0 0.0 0.00 0.02 0.00 79 1000.8
20260505120023 45 9 0.0 0.0 0.00 0.02 0.00 80 1001.2
20260505114521 45 10 0.0 0.0 0.00 0.02 0.00 79 1000.3
20260505113003 44 14 0.0 0.0 0.00 0.02 0.00 83 1000.2
20260505111504 45 342 0.0 0.0 0.00 0.02 0.00 83 1000.2
20260505110104 44 24 0.0 0.0 0.00 0.02 0.00 84 999.6
20260505101520 44 11 0.0 0.0 0.00 0.02 0.00 89 999.1
20260505100100 44 10 0.0 0.0 0.00 0.02 0.00 89 998.9
20260505094557 44 29 0.0 0.0 0.00 0.02 0.00 88 998.3
20260505093035 48 23 0.0 0.0 0.00 0.02 0.00 81 998.0
20260505091533 57 196 0.0 0.0 0.00 0.02 0.00 85 997.0
20260505090012 57 186 0.0 0.0 0.00 0.02 0.00 84 996.6
20260505084510 57 195 0.0 0.0 0.00 0.02 0.00 84 996.4
20260505083105 58 183 0.0 0.0 0.00 0.02 0.00 84 996.3
20260505081553 58 218 0.0 0.0 0.00 0.02 0.00 83 996.2
20260505080035 58 195 0.0 0.0 0.00 0.02 0.00 84 996.1
20260505074535 59 192 0.0 0.0 0.00 0.02 0.00 82 995.7
20260505073019 60 184 0.0 0.0 0.00 0.02 0.00 79 995.8
20260505071517 61 177 0.0 0.0 0.00 0.02 0.00 76 995.9
20260505070017 61 204 0.0 0.0 0.00 0.02 0.00 74 995.9
20260505064518 62 186 0.0 0.0 0.00 0.02 0.00 71 995.7
20260505063015 63 218 0.0 0.0 0.00 0.02 0.00 69 995.5
20260505061513 64 211 0.0 0.0 0.00 0.02 0.00 70 995.8
20260505060009 63 212 0.0 0.0 0.00 0.02 0.00 73 996.2
20260505054517 63 189 0.0 0.0 0.00 0.02 0.00 73 996.4
20260505053057 62 191 0.0 0.0 0.00 0.02 0.00 74 996.4
20260505051555 62 183 0.0 0.0 0.00 0.02 0.00 75 996.6
20260505041548 61 192 0.0 0.0 0.00 0.02 0.00 79 996.4
20260505040048 60 203 0.0 0.0 0.00 0.02 0.00 80 996.5
20260505034603 60 187 0.0 0.0 0.00 0.02 0.02 80 996.6
20260505033029 60 193 0.0 0.0 0.00 0.02 0.02 81 996.8
20260505031527 60 185 0.0 0.0 0.00 0.02 0.02 81 997.0
20260505030024 60 198 0.0 0.0 0.00 0.02 0.02 82 997.1
20260505024509 60 172 0.0 0.0 0.00 0.02 0.02 82 997.1
20260505023049 60 190 0.0 0.0 0.00 0.02 0.02 80 997.0
20260505021549 61 206 0.0 0.0 0.00 0.02 0.02 78 997.2
20260505020030 61 188 0.0 0.0 0.02 0.02 0.02 77 997.1
20260505014537 61 187 0.0 0.0 0.02 0.02 0.02 76 996.9
20260505013018 61 212 0.0 0.0 0.02 0.02 0.02 80 996.5
20260505011512 62 181 0.0 0.0 0.02 0.02 0.02 80 996.6
20260505010109 67 204 0.0 0.0 0.00 0.00 0.00 64 996.4
20260505004612 67 172 0.0 0.0 0.00 0.00 0.00 62 995.8
20260505003034 69 195 0.0 0.0 0.00 0.00 0.00 60 995.6
20260505001536 70 180 0.0 0.0 0.00 0.00 0.00 57 995.8
20260505000017 71 179 0.0 0.0 0.00 0.00 0.00 55 995.8
20260504234518 71 174 0.0 0.0 0.00 0.00 0.00 52 996.0
20260504233103 72 165 0.0 0.0 0.00 0.00 0.00 51 995.9
20260504231621 72 181 0.0 0.0 0.00 0.00 0.00 48 996.0
20260504230036 72 197 0.0 0.0 0.00 0.00 0.00 47 996.3